Flag for Germany Weather past 2 weeks in Braunschweig, Lower Saxony, Germany

Now
54 °F

Cool.


Feels Like: 51 °F
Forecast: 46 / 66 °F
Wind: 9 mph from Northeast

Location: Celle Airport


UV Index: 3 (Moderate)

Visibility: 3 mi


Pressure: 29.98 "Hg

Humidity: 77%

Dew point: 46 °F

Location of BraunschweigLocation

Historic Weather in Braunschweig

°F

Braunschweig temperature yesterday

Maximum temperature yesterday: 64 °F (at 5:20 PM)
Minimum temperature yesterday: 34 °F (at 6:20 AM)
Average temperature yesterday: 49 °F

Past Weeks' High & Low Weather Summary

 TemperatureHumidityPressure
High68 °F (Apr 7, 3:20 PM)100% (Apr 5, 11:50 PM)30.48 "Hg (Apr 5, 11:50 PM)
Low30 °F (Apr 16, 4:20 AM)34% (Apr 17, 3:20 PM)29.71 "Hg (Apr 8, 4:20 AM)
Average49 °F77%30.04 "Hg
* Reported Apr 4 11:20 PM — Apr 19 11:20 PM, Braunschweig, Weather by CustomWeather, © 2014

Note: Actual official high and low records may vary slightly from our data, if they occured in-between our weather recording intervals... More about our weather records

Advertising

Historic Weather Conditions — Data for Previous 24 hours

 ConditionsComfort  
Time TempWeatherWind HumidityBarometerVisibility
11:20 PM
Apr 19
55 °FCool.10 mph72%29.98 "Hg3 mi
10:20 PM57 °FCool.12 mph72%30.01 "Hg3 mi
9:20 PM57 °FCool.10 mph72%30.01 "Hg3 mi
8:20 PM59 °FCool.9 mph68%30.01 "Hg4 mi
7:20 PM63 °FMild.10 mph56%30.01 "Hg4 mi
6:20 PM64 °FMild.13 mph52%30.01 "Hg4 mi
5:20 PM64 °FMild.10 mph49%30.01 "Hg4 mi
4:20 PM63 °FMild.12 mph52%30.04 "Hg4 mi
3:20 PM61 °FRefreshingly cool.14 mph48%30.07 "Hg4 mi
2:20 PM59 °FRefreshingly cool.10 mph55%30.09 "Hg4 mi
1:20 PM57 °FRefreshingly cool.8 mph59%30.12 "Hg4 mi
12:20 PM54 °FCool.12 mph67%30.12 "Hg4 mi
11:20 AM48 °FCool.5 mph82%30.15 "Hg3 mi
10:20 AM45 °FQuite cool.5 mph87%30.15 "Hg3 mi
9:20 AM41 °FQuite cool.5 mph93%30.15 "Hg3 mi
8:20 AM37 °FChilly.5 mph100%30.12 "Hg0 mi
7:20 AM37 °FChilly.5 mph93%30.12 "Hg3 mi
6:20 AM34 °FChilly.No wind100%30.09 "Hg0 mi
5:20 AM37 °FChilly.3 mph93%30.07 "Hg3 mi
4:20 AM37 °FChilly.5 mph100%30.07 "Hg0 mi
3:20 AM36 °FChilly.1 mph100%30.04 "Hg0 mi
2:20 AM39 °FChilly.3 mph100%30.01 "Hg0 mi
1:20 AM39 °FChilly.1 mph100%30.01 "Hg0 mi
12:20 AM41 °FQuite cool.1 mph100%29.98 "Hg2 mi
Weather by CustomWeather, © 2014

See weather overview